Savannah Hunter, GA

7:04 AM EDT on March 30, 2017 (GMT -0400)
Hunter Army Air Field

Weather History for KSVN - October, 2013

Change the Weather History Date:

Wednesday, October 9, 2013

  Actual Average Record
Temperature  
Mean Temperature 69 °F -  
Max Temperature 79 °F 77 °F 89 °F (2007)
Min Temperature 59 °F 60 °F 44 °F (2000)
Cooling Degree Days 4    
Growing Degree Days 19 (Base 50)    
Moisture  
Dew Point 58 °F    
Average Humidity 76    
Maximum Humidity 92    
Minimum Humidity 55    
Precipitation  
Precipitation 0.00 in - - ()
Sea Level Pressure  
Sea Level Pressure 30.06 in    
Wind  
Wind Speed 11 mph (North)    
Max Wind Speed 18 mph    
Max Gust Speed 25 mph    
Visibility 10 miles    
Events      
Averages and records for this station are not official NWS values.
T = Trace of Precipitation, MM = Missing Value Source: NWS Daily Summary

Daily Weather History Graph

Daily Weather History Graph

Search for Another Location

Airport or City:

Trip Planner

Search our weather history database for the weather conditions in past years. The results will help you decide how hot, cold, wet, or windy it might be!

Date:

Astronomy

Oct. 09, 2013 Rise Set
Actual Time 7:24 AM EDT 6:59 PM EDT
Civil Twilight 6:59 AM EDT 7:23 PM EDT
Nautical Twilight 6:31 AM EDT 7:51 PM EDT
Astronomical Twilight 6:02 AM EDT 8:20 PM EDT
Moon 12:04 PM EDT (10/9) 10:45 PM EDT (10/9)
Length of Visible Light 12h 24m
Length of Day
11h 35m
Waxing Crescent, 25% of the Moon is Illuminated
Oct 9
Waxing Crescent
Oct 11
First Quarter
Oct 18
Full
Oct 26
Last Quarter
Nov 3
New

Hourly Weather History & Observations

Time (EDT) Temp. Dew Point Humidity Pressure Visibility Wind Dir Wind Speed Gust Speed Precip Events Conditions
12:03 AM 60.8 °F 57.2 °F 88% 30.06 in 10.0 mi North 12.7 mph 19.6 mph N/A   Overcast
12:58 AM 59.5 °F 56.7 °F 90% 30.06 in 10.0 mi North 13.8 mph 20.7 mph N/A   Overcast
1:58 AM 59.4 °F 57.0 °F 92% 30.06 in 10.0 mi North 10.4 mph 18.4 mph N/A   Overcast
2:58 AM 59.7 °F 56.5 °F 89% 30.06 in 10.0 mi North 9.2 mph - N/A   Overcast
3:58 AM 60.8 °F 55.4 °F 82% 30.06 in 10.0 mi North 9.2 mph - N/A   Overcast
4:58 AM 59.7 °F 55.8 °F 87% 30.05 in 10.0 mi North 10.4 mph 21.9 mph N/A   Overcast
5:13 AM 59.0 °F 55.4 °F 88% 30.05 in 10.0 mi North 12.7 mph 20.7 mph N/A   Overcast
5:58 AM 59.2 °F 55.4 °F 87% 30.07 in 10.0 mi North 12.7 mph - N/A   Overcast
6:13 AM 59.0 °F 55.4 °F 88% 30.06 in 10.0 mi North 11.5 mph - N/A   Overcast
6:58 AM 59.2 °F 55.0 °F 86% 30.08 in 10.0 mi North 15.0 mph 21.9 mph N/A   Overcast
7:48 AM 59.0 °F 55.4 °F 88% 30.08 in 10.0 mi North 9.2 mph 17.3 mph N/A   Scattered Clouds
7:58 AM 59.4 °F 54.7 °F 84% 30.09 in 10.0 mi North 12.7 mph 18.4 mph N/A   Partly Cloudy
8:58 AM 61.9 °F 54.7 °F 77% 30.10 in 10.0 mi North 18.4 mph 25.3 mph N/A   Clear
9:58 AM 65.1 °F 55.9 °F 72% 30.10 in 10.0 mi North 11.5 mph - N/A   Clear
10:58 AM 68.4 °F 57.0 °F 67% 30.10 in 10.0 mi North 12.7 mph - N/A   Clear
11:58 AM 70.9 °F 58.3 °F 64% 30.10 in 10.0 mi North 10.4 mph - N/A   Clear
12:58 PM 74.1 °F 59.5 °F 60% 30.08 in 10.0 mi North 11.5 mph 19.6 mph N/A   Clear
1:58 PM 76.3 °F 60.8 °F 59% 30.06 in 10.0 mi NNW 9.2 mph - N/A   Clear
2:58 PM 78.6 °F 61.7 °F 56% 30.04 in 10.0 mi NNW 10.4 mph - N/A   Clear
3:58 PM 79.0 °F 61.7 °F 55% 30.04 in 10.0 mi NNW 11.5 mph - N/A   Partly Cloudy
4:58 PM 78.8 °F 61.3 °F 55% 30.03 in 10.0 mi North 8.1 mph - N/A   Clear
5:58 PM 77.5 °F 60.4 °F 55% 30.04 in 10.0 mi NNW 12.7 mph - N/A   Clear
6:58 PM 74.5 °F 60.3 °F 61% 30.04 in 10.0 mi NNW 6.9 mph - N/A   Clear
7:58 PM 70.7 °F 61.2 °F 72% 30.04 in 10.0 mi Variable 5.8 mph - N/A   Clear
8:58 PM 69.8 °F 61.0 °F 73% 30.05 in 10.0 mi North 5.8 mph - N/A   Clear
9:58 PM 68.4 °F 61.2 °F 78% 30.07 in 10.0 mi North 3.5 mph - N/A   Clear
10:58 PM 67.3 °F 61.7 °F 82% 30.07 in 10.0 mi North 5.8 mph - N/A   Clear
11:58 PM 66.6 °F 60.4 °F 81% 30.07 in 10.0 mi North 6.9 mph - N/A   Clear